Torna al catalogo

HONGHU 2

AttivoScienzaSSO
NORAD 58555·PAYLOAD·🇨🇳 China

Lanciato Dec 8, 2023 da Jiuquan Satellite Launch Center

Loading…

Prossimi Passaggi (prossime 24 ore)

TLE

AggiornatoSource: Space-Track

Epoca: Sep 14, 2026, 14:15 UTC

1 58555U 23193C   26257.59442525  .00007305  00000-0  21385-3 0  9991
2 58555  97.2853 247.5673 0040714 321.7667  38.0691 15.34701044115773

Traccia HONGHU 2 in tempo reale con AllMySat

Download on the App Store